LogID,LogEntryDate,LogEntryTime,LogEntrySeconds,LogNotes,AFR,STFT,CurrentLTFT,CruiseLTFT,IdleLTFT,IPW,O2Sensor2,Load,AFRMAP,LoadTiming,TimingAdv,KnockSum,RPM,IDC,Baro,MAP,Boost,OmniMAP,OmniBoost,WGDC_Active,MAF,InVVTtarget,ExVVTtarget,InVVTactual,ExVVTactual,TPS,APP,IAT,WGDCCorr,Speed,Battery,ECT,MAT,MAPCalcs,IMAPCalcs,MAFCalcs,ChosenCalc,EthanolPercent,Custom
1,2019-02-03,14:46:46.26176,0.10555,,0,0,-9.9609375,-11.1328125,-9.9609375,1.8,0,20.3125,14.7,21.875,10,0,2343.75,3.515625,14.28621739,6.4646223,-7.82159509,7.84905,-6.43716739,0,2.05884,11.875,-6.25,10.625,0.15625,24.3137254901961,33.8941176470588,66.2,0,26.103,14.44601,179.6,73.4,29.6875,0,59.375,29.6875,76.078431372549,
2,2019-02-03,14:46:46.29467,0.13864,,0,0,-9.9609375,-11.1328125,-9.9609375,2.3,0,29.6875,14.7,34.375,22,0,2367.1875,4.537109375,14.28621739,6.4646223,-7.82159509,7.84905,-6.43716739,0,2.05884,11.875,-6.25,10.625,0.15625,24.3137254901961,33.8941176470588,66.2,0,26.103,14.44601,179.6,73.4,42.1875,0,109.375,42.1875,76.078431372549,
3,2019-02-03,14:46:46.33456,0.17851,,0,0,-9.9609375,-11.1328125,-9.9609375,2.7,0,39.0625,14.7,42.1875,38,0,2406.25,5.4140625,14.28621739,13.1222184,-1.16399899,15.9324,1.64618261,0,2.490216,11.875,-6.25,10.625,0.15625,24.3137254901961,33.8941176470588,66.2,0,26.103,14.44601,179.6,73.4,67.1875,0,104.6875,62.5,76.078431372549,
4,2019-02-03,14:46:46.37744,0.2214,,0,0,-11.1328125,-11.1328125,-9.9609375,3.7,0,62.5,14.7,65.625,33,0,2445.3125,7.53971354166667,14.28621739,13.1222184,-1.16399899,15.9324,1.64618261,0,2.490216,24.375,-1.25,10.9375,-3.125,24.3137254901961,33.8941176470588,66.2,0,26.103,14.44601,179.6,73.4,84.375,0,73.4375,67.1875,76.078431372549,
5,2019-02-03,14:46:46.42133,0.26486,,0,0,-11.1328125,-11.1328125,-9.9609375,3.5,0,68.75,14.7,70.3125,21,0,2554.6875,7.451171875,14.28621739,14.1835743,-0.102643089999999,17.22105,2.93483261,0,2.000016,24.375,-1.25,10.9375,-3.125,61.1764705882353,83.4705882352941,66.2,0,26.103,14.44601,179.6,73.4,87.5,0,75,71.875,76.4705882352941,
6,2019-02-03,14:46:46.46123,0.30498,,0,0,-11.1328125,-11.1328125,-9.9609375,3.6,0,71.875,14.7,73.4375,29,0,2390.625,7.171875,14.28621739,14.1835743,-0.102643089999999,17.22105,2.93483261,0,2.000016,18.125,0,18.4375,-0.3125,61.1764705882353,83.4705882352941,66.2,0,26.103,14.44601,179.6,73.4,89.0625,0,78.125,73.4375,76.078431372549,
7,2019-02-03,14:46:46.50197,0.34525,,0,0,-11.1328125,-11.1328125,-9.9609375,3.6,0,73.4375,14.7,73.4375,27,0,2234.375,6.703125,14.28621739,14.3765481,0.0903307100000017,17.45535,3.16913261,0,2.294136,18.125,0,18.4375,-0.3125,61.1764705882353,83.4705882352941,66.2,0,26.103,14.44601,179.6,73.4,90.625,0,75,73.4375,76.078431372549,
8,2019-02-03,14:46:46.53588,0.37979,,0,0,-11.1328125,-11.1328125,-9.9609375,3.7,0,73.4375,14.7,75,11,0,2359.375,7.27473958333333,14.28621739,14.3765481,0.0903307100000017,17.45535,3.16913261,0,2.294136,20.625,0,16.875,0.15625,87.0588235294118,101.176470588235,66.2,0,26.103,14.44601,179.6,73.4,90.625,0,79.6875,76.5625,76.4705882352941,
9,2019-02-03,14:46:46.58190,0.42541,,23.0055,0,-11.1328125,-11.1328125,-9.9609375,3.6,0,76.5625,14.7,76.5625,18,0,2507.8125,7.5234375,14.28621739,14.5695219,0.283304510000001,17.68965,3.40343261,0,1.882368,20.625,0,16.875,0.15625,87.0588235294118,101.176470588235,66.2,0,26.103,14.37268,179.6,73.4,90.625,0,78.125,76.5625,76.078431372549,
10,2019-02-03,14:46:46.61081,0.45477,,23.0055,0,-11.1328125,-11.1328125,-9.9609375,3.6,0,76.5625,14.7,76.5625,26,0,2437.5,7.3125,14.28621739,14.5695219,0.283304510000001,17.68965,3.40343261,0,1.882368,18.125,0,17.5,0,87.0588235294118,101.176470588235,66.2,0,26.103,14.37268,179.6,73.4,92.1875,0,78.125,76.5625,76.4705882352941,
11,2019-02-03,14:46:46.64359,0.48687,,23.0055,0,-11.1328125,-11.1328125,-9.9609375,3.6,0,76.5625,14.7,76.5625,26,0,2367.1875,7.1015625,14.28621739,14.6660088,0.379791410000001,17.8068,3.52058261,0,2.35296,18.125,0,17.5,0,87.4509803921569,101.682352941176,66.2,0,26.103,14.37268,179.6,73.4,92.1875,0,78.125,78.125,76.4705882352941,
12,2019-02-03,14:46:46.67651,0.51986,,23.0055,0,-11.1328125,-11.1328125,-9.9609375,3.6,0,78.125,14.7,78.125,26,1,2375,7.125,14.28621739,14.6660088,0.379791410000001,17.8068,3.52058261,0,2.35296,18.75,0,17.34375,0.15625,87.4509803921569,101.682352941176,66.2,0,26.103,14.44601,179.6,73.4,92.1875,0,81.25,78.125,76.4705882352941,
13,2019-02-03,14:46:46.70842,0.55185,,23.0055,0,-11.1328125,-11.1328125,-9.9609375,3.6,0,78.125,14.7,78.125,26,0,2437.5,7.3125,14.28621739,14.5695219,0.283304510000001,17.68965,3.40343261,0,2.411784,18.75,0,17.34375,0.15625,87.4509803921569,101.682352941176,66.2,0,26.103,14.44601,179.6,73.4,93.75,0,84.375,79.6875,76.4705882352941,
14,2019-02-03,14:46:46.74347,0.58691,,11.9805,0,-11.1328125,-11.1328125,-9.9609375,3.6,0,79.6875,14.7,79.6875,26,0,2507.8125,7.5234375,14.28621739,14.5695219,0.283304510000001,17.68965,3.40343261,0,2.411784,19.375,0,16.40625,0,87.4509803921569,101.682352941176,66.2,0,26.103,14.44601,179.6,73.4,93.75,0,81.25,79.6875,76.078431372549,
15,2019-02-03,14:46:46.77438,0.61839,,11.9805,0,-11.1328125,-11.1328125,-9.9609375,3.6,0,79.6875,14.7,79.6875,26,0,2468.75,7.40625,14.28621739,14.6660088,0.379791410000001,17.8068,3.52058261,0,1.9608,19.375,0,16.40625,0,87.4509803921569,101.682352941176,66.2,0,26.103,14.51934,179.6,73.4,93.75,0,82.8125,79.6875,76.4705882352941,
16,2019-02-03,14:46:46.80331,0.64677,,11.9805,0,-11.1328125,-11.1328125,-9.9609375,3.7,0,79.6875,14.7,79.6875,26,0,2437.5,7.515625,14.28621739,14.6660088,0.379791410000001,17.8068,3.52058261,0,1.9608,17.5,0,16.25,0,87.4509803921569,101.682352941176,66.2,0,26.103,14.51934,179.6,73.4,93.75,0,85.9375,79.6875,76.078431372549,
17,2019-02-03,14:46:46.84605,0.68942,,11.9805,0,-11.1328125,-11.1328125,-9.9609375,3.7,0,81.25,14.7,81.25,25,0,2445.3125,7.53971354166667,14.28621739,14.8589826,0.57276521,18.0411,3.75488261,0,2.176488,17.5,0,16.25,0,87.4509803921569,101.682352941176,66.2,0,26.103,14.51934,179.6,73.4,95.3125,0,81.25,79.6875,76.078431372549,
18,2019-02-03,14:46:46.87113,0.71492,,11.9805,0,-11.1328125,-11.1328125,-9.9609375,3.7,0,81.25,14.7,81.25,26,0,2492.1875,7.68424479166667,14.28621739,14.8589826,0.57276521,18.0411,3.75488261,0,2.176488,18.75,0,15.9375,0,87.4509803921569,101.682352941176,66.2,0,26.103,14.44601,179.6,73.4,95.3125,0,79.6875,81.25,76.078431372549,
19,2019-02-03,14:46:46.91301,0.75646,,12.2157,0,-11.1328125,-11.1328125,-9.9609375,3.6,0,81.25,14.7,81.25,25,0,2531.25,7.59375,14.28621739,14.9554695,0.66925211,18.15825,3.87203261,0,2.333352,18.75,0,15.9375,0,87.4509803921569,101.682352941176,66.2,0,26.103,14.44601,179.6,73.4,95.3125,0,81.25,81.25,76.078431372549,
20,2019-02-03,14:46:46.93689,0.78027,,12.2157,0,-11.1328125,-11.1328125,-9.9609375,3.6,0,81.25,14.7,81.25,25,0,2515.625,7.546875,14.28621739,14.9554695,0.66925211,18.15825,3.87203261,0,2.333352,18.75,0,15.46875,0,87.4509803921569,101.682352941176,66.2,0,26.103,14.44601,179.6,73.4,95.3125,0,84.375,81.25,76.4705882352941,
21,2019-02-03,14:46:46.96687,0.8103,,12.2157,0,-11.1328125,-11.1328125,-9.9609375,3.6,0,81.25,14.7,81.25,25,0,2500,7.5,14.28621739,15.0519564,0.765739010000001,18.2754,3.98918261,0,1.941192,18.75,0,15.46875,0,87.4509803921569,101.682352941176,66.2,0,27.346,14.44601,179.6,75.2,95.3125,0,81.25,81.25,76.078431372549,
22,2019-02-03,14:46:46.98482,0.82827,,12.2157,0,-11.1328125,-11.1328125,-9.9609375,3.6,0,81.25,14.7,81.25,25,0,2500,7.5,14.28621739,15.0519564,0.765739010000001,18.2754,3.98918261,0,1.941192,18.125,0,15.3125,0.15625,87.4509803921569,101.682352941176,66.2,0,27.346,14.44601,179.6,75.2,95.3125,0,84.375,81.25,76.078431372549,
23,2019-02-03,14:46:47.02272,0.86651,,12.2157,0,-11.1328125,-11.1328125,-9.9609375,3.7,0,81.25,14.5860465116279,82.8125,25,0,2515.625,7.75651041666667,14.28621739,15.0519564,0.765739010000001,18.2754,3.98918261,0,2.05884,18.125,0,15.3125,0.15625,87.0588235294118,101.682352941176,66.2,0,27.346,14.44601,179.6,75.2,96.875,0,85.9375,82.8125,76.4705882352941,
24,2019-02-03,14:46:47.05463,0.89821,,12.054,0,-11.1328125,-11.1328125,-9.9609375,3.7,0,82.8125,14.5860465116279,82.8125,25,0,2562.5,7.90104166666667,14.28621739,15.0519564,0.765739010000001,18.2754,3.98918261,0,2.05884,17.5,0,15.15625,0,87.0588235294118,101.682352941176,66.2,0,27.346,14.44601,179.6,75.2,96.875,0,82.8125,82.8125,76.078431372549,
25,2019-02-03,14:46:47.09054,0.93454,,12.054,0,-11.1328125,-11.1328125,-9.9609375,3.6,0,82.8125,14.5860465116279,82.8125,25,0,2570.3125,7.7109375,14.28621739,15.1484433,0.862225910000001,18.39255,4.10633261,0,1.784328,17.5,0,15.15625,0,87.0588235294118,101.682352941176,66.2,0,27.346,14.44601,179.6,75.2,96.875,0,79.6875,81.25,76.4705882352941,
26,2019-02-03,14:46:47.11540,0.95884,,12.054,0,-11.1328125,-11.1328125,-9.9609375,3.6,0,82.8125,14.5860465116279,82.8125,25,0,2562.5,7.6875,14.28621739,15.1484433,0.862225910000001,18.39255,4.10633261,0,1.784328,18.125,0,14.84375,0.15625,87.0588235294118,101.176470588235,66.2,0,27.346,14.44601,179.6,75.2,96.875,0,81.25,81.25,76.078431372549,
27,2019-02-03,14:46:47.14924,0.99332,,12.054,0,-11.1328125,-11.1328125,-9.9609375,3.6,0,82.8125,14.5860465116279,82.8125,25,0,2554.6875,7.6640625,14.28621739,15.2449302,0.958712810000002,18.5097,4.22348261,0,2.078448,18.125,0,14.84375,0.15625,87.0588235294118,101.176470588235,66.2,0,27.346,14.51934,179.6,75.2,98.4375,0,81.25,82.8125,76.4705882352941,
28,2019-02-03,14:46:47.17417,1.01804,,12.054,0,-11.1328125,-11.1328125,-9.9609375,3.6,0,82.8125,14.5860465116279,82.8125,25,0,2570.3125,7.7109375,14.28621739,15.2449302,0.958712810000002,18.5097,4.22348261,0,2.078448,18.125,0,14.6875,0,87.0588235294118,101.176470588235,66.2,0,27.346,14.51934,179.6,75.2,98.4375,0,85.9375,82.8125,76.078431372549,
29,2019-02-03,14:46:47.20723,1.05098,,12.054,0,-11.1328125,-11.1328125,-9.9609375,3.7,0,82.8125,14.5860465116279,82.8125,25,0,2585.9375,7.97330729166667,14.28621739,15.2449302,0.958712810000002,18.5097,4.22348261,0,2.470608,18.125,0,14.6875,0,87.0588235294118,101.176470588235,66.2,0,27.346,14.51934,179.6,75.2,98.4375,0,78.125,82.8125,76.4705882352941,
30,2019-02-03,14:46:47.24014,1.08413,,12.201,0,-11.1328125,-11.1328125,-9.9609375,3.6,0,82.8125,14.5860465116279,82.8125,25,0,2617.1875,7.8515625,14.28621739,15.2449302,0.958712810000002,18.5097,4.22348261,0,2.470608,18.125,0,14.6875,0,87.0588235294118,101.176470588235,66.2,0,27.346,14.37268,179.6,75.2,98.4375,0,81.25,82.8125,76.078431372549,
31,2019-02-03,14:46:47.26493,1.10835,,12.201,0,-11.1328125,-11.1328125,-9.9609375,3.6,0,82.8125,14.5860465116279,82.8125,25,0,2617.1875,7.8515625,14.28621739,15.3414171,1.05519971,18.62685,4.34063261,0,2.74512,18.125,0,14.6875,0,87.0588235294118,101.176470588235,66.2,0,27.346,14.37268,179.6,75.2,98.4375,0,84.375,82.8125,76.4705882352941,
32,2019-02-03,14:46:47.29001,1.13407,,12.201,0,-11.1328125,-11.1328125,-9.9609375,3.6,0,82.8125,14.5860465116279,82.8125,25,0,2609.375,7.828125,14.28621739,15.3414171,1.05519971,18.62685,4.34063261,0,2.74512,18.125,0,14.6875,0,87.0588235294118,101.176470588235,66.2,0,27.346,14.37268,179.6,75.2,100,0,79.6875,82.8125,76.078431372549,
33,2019-02-03,14:46:47.32394,1.16796,,12.201,0,-11.1328125,-11.1328125,-9.9609375,3.6,0,82.8125,14.5860465116279,82.8125,25,0,2617.1875,7.8515625,14.28621739,15.437904,1.15168661,18.744,4.45778261,0,2.039232,18.125,0,14.6875,0,87.0588235294118,101.176470588235,66.2,0,27.346,14.37268,179.6,75.2,100,0,82.8125,82.8125,76.4705882352941,
34,2019-02-03,14:46:47.34986,1.19395,,12.201,0,-11.1328125,-11.1328125,-9.9609375,3.6,0,82.8125,14.5860465116279,82.8125,26,0,2632.8125,7.8984375,14.28621739,15.437904,1.15168661,18.744,4.45778261,0,2.039232,18.125,0,14.6875,0,87.0588235294118,101.176470588235,66.2,0,27.346,14.37268,179.6,75.2,100,0,87.5,82.8125,76.078431372549,
35,2019-02-03,14:46:47.38264,1.22595,,12.1716,0,-11.1328125,-11.1328125,-9.9609375,3.6,0,82.8125,14.5860465116279,82.8125,25,0,2648.4375,7.9453125,14.28621739,15.437904,1.15168661,18.744,4.45778261,0,1.725504,18.125,0,14.6875,0,87.0588235294118,101.176470588235,66.2,0,27.346,14.37268,179.6,75.2,100,0,82.8125,82.8125,76.4705882352941,
36,2019-02-03,14:46:47.40669,1.25079,,12.1716,0,-11.1328125,-11.1328125,-9.9609375,3.6,0,82.8125,14.5860465116279,82.8125,25,0,2664.0625,7.9921875,14.28621739,15.437904,1.15168661,18.744,4.45778261,0,1.725504,18.125,0,14.84375,0,87.0588235294118,101.176470588235,66.2,0,27.346,14.37268,179.6,75.2,100,0,90.625,84.375,76.078431372549,
37,2019-02-03,14:46:47.45043,1.29387,,12.1716,0,-11.1328125,-11.1328125,-9.9609375,3.7,0,84.375,14.5860465116279,84.375,25,0,2656.25,8.19010416666667,14.28621739,15.5343909,1.24817351,18.86115,4.57493261,0,2.529432,18.125,0,14.84375,0,87.0588235294118,101.176470588235,66.2,0,27.346,14.37268,179.6,75.2,100,0,84.375,84.375,76.4705882352941,
38,2019-02-03,14:46:47.47939,1.32358,,12.1716,0,-11.1328125,-11.1328125,-9.9609375,3.6,0,84.375,14.5860465116279,84.375,25,0,2671.875,8.015625,14.28621739,15.5343909,1.24817351,18.86115,4.57493261,0,2.529432,17.5,0,15,0,87.0588235294118,101.176470588235,66.2,0,27.346,14.37268,179.6,75.2,100,0,90.625,84.375,76.4705882352941,
39,2019-02-03,14:46:47.51529,1.35925,,12.1716,0,-11.1328125,-11.1328125,-9.9609375,3.7,0,84.375,14.5860465116279,84.375,25,0,2695.3125,8.310546875,14.28621739,15.7273647,1.44114731,19.09545,4.80923261,0,2.705904,17.5,0,15,0,87.0588235294118,101.176470588235,66.2,0,27.346,14.44601,179.6,75.2,101.5625,0,82.8125,84.375,76.078431372549,
40,2019-02-03,14:46:47.54333,1.38736,,12.3921,0,-11.1328125,-11.1328125,-9.9609375,3.7,0,84.375,14.5860465116279,84.375,25,0,2703.125,8.33463541666667,14.28621739,15.7273647,1.44114731,19.09545,4.80923261,0,2.705904,17.5,0,14.84375,0,87.0588235294118,101.176470588235,66.2,0,27.346,14.44601,179.6,75.2,101.5625,0,81.25,84.375,76.4705882352941,
41,2019-02-03,14:46:47.57225,1.4157,,12.3921,0,-11.1328125,-11.1328125,-9.9609375,3.6,0,84.375,14.5860465116279,84.375,25,0,2703.125,8.109375,14.28621739,15.7273647,1.44114731,19.09545,4.80923261,0,1.745112,17.5,0,14.84375,0,87.0588235294118,101.176470588235,66.2,0,27.346,14.44601,179.6,75.2,101.5625,0,87.5,85.9375,76.4705882352941,
42,2019-02-03,14:46:47.61001,1.45332,,12.3921,0,-11.1328125,-11.1328125,-9.9609375,3.7,0,85.9375,14.5860465116279,85.9375,25,0,2710.9375,8.35872395833333,14.28621739,15.7273647,1.44114731,19.09545,4.80923261,0,1.745112,16.875,0,14.84375,0,87.0588235294118,101.176470588235,66.2,0,27.346,14.51934,179.6,75.2,101.5625,0,75,84.375,76.078431372549,
43,2019-02-03,14:46:47.64891,1.49288,,12.3921,0,-11.1328125,-11.1328125,-9.9609375,3.5,0,84.375,14.5860465116279,84.375,25,0,2734.375,7.97526041666667,14.28621739,15.7273647,1.44114731,19.09545,4.80923261,0,2.117664,16.875,0,14.84375,0,87.0588235294118,101.176470588235,66.2,0,27.346,14.51934,179.6,75.2,101.5625,0,85.9375,84.375,76.078431372549,
44,2019-02-03,14:46:47.67997,1.52404,,12.3921,0,-11.1328125,-11.1328125,-9.9609375,3.6,0,84.375,14.5860465116279,84.375,25,0,2750,8.25,14.28621739,15.7273647,1.44114731,19.09545,4.80923261,0,2.117664,17.5,0,14.84375,0,87.0588235294118,101.176470588235,66.2,0,27.346,14.51934,179.6,75.2,103.125,0,92.1875,85.9375,76.4705882352941,
45,2019-02-03,14:46:47.72181,1.56524,,12.6714,0,-11.1328125,-11.1328125,-9.9609375,3.8,0,85.9375,14.5860465116279,85.9375,25,0,2750,8.70833333333333,14.28621739,16.0168254,1.73060801,19.4469,5.16068261,0,2.529432,17.5,0,14.84375,0,87.0588235294118,101.176470588235,66.2,0,29.832,14.37268,179.6,75.2,103.125,0,85.9375,85.9375,76.078431372549,
46,2019-02-03,14:46:47.75163,1.59513,,12.6714,0,-11.1328125,-11.1328125,-9.9609375,3.6,0,85.9375,14.5860465116279,85.9375,24,0,2757.8125,8.2734375,14.28621739,16.0168254,1.73060801,19.4469,5.16068261,0,2.529432,17.5,-0.625,15.15625,0,87.0588235294118,101.176470588235,66.2,0,29.832,14.37268,179.6,75.2,103.125,0,90.625,85.9375,76.4705882352941,
47,2019-02-03,14:46:47.79262,1.63676,,12.6714,0,-11.1328125,-11.1328125,-9.9609375,3.7,0,85.9375,14.5860465116279,85.9375,25,0,2781.25,8.57552083333333,14.28621739,15.9203385,1.63412111,19.32975,5.04353261,0,2.098056,17.5,-0.625,15.15625,0,87.0588235294118,101.176470588235,66.2,0,29.832,14.37268,179.6,75.2,103.125,0,89.0625,85.9375,76.4705882352941,
48,2019-02-03,14:46:47.82159,1.66503,,12.6714,0,-11.1328125,-11.1328125,-9.9609375,3.7,0,85.9375,14.5860465116279,85.9375,24,0,2789.0625,8.599609375,14.28621739,15.9203385,1.63412111,19.32975,5.04353261,0,2.098056,17.5,-1.25,15.15625,0,87.0588235294118,101.176470588235,66.2,0,29.832,14.44601,179.6,75.2,104.6875,0,81.25,85.9375,76.078431372549,
49,2019-02-03,14:46:47.86134,1.70544,,12.6714,0,-11.1328125,-11.1328125,-9.9609375,3.6,0,87.5,14.4738461538462,85.9375,24,0,2804.6875,8.4140625,14.28621739,16.1133123,1.82709491,19.56405,5.27783261,0,2.764728,17.5,-1.25,15.15625,0,87.0588235294118,101.176470588235,66.2,0,29.832,14.44601,179.6,75.2,104.6875,0,82.8125,85.9375,76.4705882352941,
50,2019-02-03,14:46:47.90137,1.74503,,12.7596,0,-11.1328125,-11.1328125,-9.9609375,3.6,0,85.9375,14.5860465116279,87.5,25,0,2820.3125,8.4609375,14.28621739,16.1133123,1.82709491,19.56405,5.27783261,0,2.764728,18.125,-1.25,15.46875,0,87.0588235294118,101.176470588235,66.2,0,29.832,14.44601,179.6,75.2,104.6875,0,95.3125,87.5,76.078431372549,
51,2019-02-03,14:46:47.93429,1.77833,,12.7596,0,-11.1328125,-11.1328125,-9.9609375,3.6,0,87.5,14.4738461538462,87.5,25,0,2828.125,8.484375,14.28621739,16.1133123,1.82709491,19.56405,5.27783261,0,1.882368,18.125,-1.25,15.46875,0,87.0588235294118,101.176470588235,66.2,0,29.832,14.51934,179.6,75.2,104.6875,0,81.25,87.5,76.4705882352941,
52,2019-02-03,14:46:47.96520,1.80864,,12.7596,0,-11.1328125,-11.1328125,-9.9609375,3.5,0,87.5,14.4738461538462,87.5,25,0,2843.75,8.29427083333333,14.28621739,16.1133123,1.82709491,19.56405,5.27783261,0,1.882368,18.125,-1.875,15.78125,0,87.0588235294118,101.176470588235,66.2,0,29.832,14.51934,179.6,75.2,104.6875,0,87.5,87.5,76.4705882352941,
53,2019-02-03,14:46:47.99099,1.83487,,12.7596,0,-11.1328125,-11.1328125,-9.9609375,3.5,0,87.5,14.4738461538462,87.5,25,0,2843.75,8.29427083333333,14.28621739,16.2097992,1.92358181,19.6812,5.39498261,0,2.019624,18.125,-1.875,15.78125,0,87.0588235294118,101.176470588235,66.2,0,29.832,14.51934,179.6,75.2,106.25,0,92.1875,89.0625,76.4705882352941,
54,2019-02-03,14:46:48.02900,1.87246,,12.7596,0,-11.1328125,-11.1328125,-9.9609375,3.4,0,89.0625,14.4738461538462,89.0625,24,0,2859.375,8.1015625,14.28621739,16.2097992,1.92358181,19.6812,5.39498261,0,2.019624,18.125,-2.5,15.9375,0.15625,87.0588235294118,101.176470588235,66.2,0,29.832,14.44601,179.6,75.2,106.25,0,92.1875,89.0625,76.4705882352941,
55,2019-02-03,14:46:48.06094,1.90502,,12.7596,0,-11.1328125,-11.1328125,-9.9609375,3.4,0,89.0625,14.4738461538462,89.0625,24,0,2867.1875,8.12369791666667,14.28621739,16.3062861,2.02006871,19.79835,5.51213261,0,2.84316,18.125,-2.5,15.9375,0.15625,87.0588235294118,101.176470588235,66.2,0,29.832,14.44601,179.6,75.2,106.25,0,100,90.625,76.078431372549,
56,2019-02-03,14:46:48.08876,1.93219,,12.7596,0,-11.1328125,-11.1328125,-9.9609375,3.4,0,90.625,14.4738461538462,90.625,24,0,2867.1875,8.12369791666667,14.28621739,16.3062861,2.02006871,19.79835,5.51213261,0,2.84316,18.75,-1.875,16.25,0,87.0588235294118,101.176470588235,64.4,0,29.832,14.44601,179.6,75.2,106.25,0,98.4375,92.1875,76.078431372549,
57,2019-02-03,14:46:48.13261,1.97592,,12.7596,0,-11.1328125,-11.1328125,-9.9609375,3.3,0,92.1875,14.363358778626,92.1875,23,0,2890.625,7.94921875,14.28621739,16.3062861,2.02006871,19.79835,5.51213261,0,2.35296,18.75,-1.875,16.25,0,87.0588235294118,101.176470588235,64.4,0,29.832,14.44601,179.6,75.2,106.25,0,93.75,92.1875,76.078431372549,
58,2019-02-03,14:46:48.15857,2.0021,,12.7596,0,-11.1328125,-11.1328125,-9.9609375,3.3,0,92.1875,14.363358778626,92.1875,23,0,2906.25,7.9921875,14.28621739,16.3062861,2.02006871,19.79835,5.51213261,0,2.35296,19.375,-1.875,16.5625,0,87.0588235294118,101.176470588235,64.4,0,29.832,14.44601,179.6,75.2,106.25,0,100,93.75,76.4705882352941,
59,2019-02-03,14:46:48.20855,2.05251,,13.3182,0,-11.1328125,-11.1328125,-9.9609375,3.3,0,93.75,14.363358778626,93.75,22,0,2914.0625,8.013671875,14.28621739,16.402773,2.11655561,19.9155,5.62928261,0,2.098056,19.375,-1.875,16.5625,0,87.0588235294118,101.176470588235,64.4,0,29.832,14.44601,179.6,75.2,106.25,0,96.875,95.3125,76.4705882352941,
60,2019-02-03,14:46:48.24032,2.08444,,13.3182,0,-11.1328125,-11.1328125,-9.9609375,3.3,0,95.3125,14.363358778626,95.3125,22,0,2929.6875,8.056640625,14.28621739,16.402773,2.11655561,19.9155,5.62928261,0,2.098056,20,-1.25,17.1875,0,87.0588235294118,101.176470588235,64.4,0,29.832,14.44601,179.6,75.2,107.8125,0,98.4375,95.3125,76.078431372549,
61,2019-02-03,14:46:48.28235,2.1258,,13.3182,0,-11.1328125,-11.1328125,-9.9609375,3.4,0,95.3125,14.363358778626,96.875,22,0,2945.3125,8.34505208333333,14.28621739,16.4992599,2.21304251,20.03265,5.74643261,0,2.274528,20,-1.25,17.1875,0,87.0588235294118,101.176470588235,64.4,0,29.832,14.44601,179.6,75.2,107.8125,0,93.75,96.875,76.4705882352941,
62,2019-02-03,14:46:48.31229,2.15574,,13.3182,0,-11.1328125,-11.1328125,-9.9609375,3.4,0,96.875,14.363358778626,96.875,22,0,2960.9375,8.38932291666667,14.28621739,16.4992599,2.21304251,20.03265,5.74643261,0,2.274528,20.625,-1.25,17.96875,0.15625,87.0588235294118,101.176470588235,64.4,0,29.832,14.44601,179.6,75.2,107.8125,0,104.6875,96.875,76.078431372549,
63,2019-02-03,14:46:48.35218,2.19585,,13.3182,0,-11.1328125,-11.1328125,-9.9609375,3.5,0,96.875,14.2545454545455,96.875,22,0,2953.125,8.61328125,14.28621739,16.6922337,2.40601631,20.26695,5.98073261,0,2.627472,20.625,-1.25,17.96875,0.15625,87.0588235294118,101.176470588235,64.4,0,29.832,14.51934,179.6,75.2,109.375,0,95.3125,98.4375,76.4705882352941,
64,2019-02-03,14:46:48.38992,2.23416,,14.5383,0,-11.1328125,-11.1328125,-9.9609375,3.5,0,98.4375,14.2545454545455,98.4375,21,0,2984.375,8.70442708333333,14.28621739,16.6922337,2.40601631,20.26695,5.98073261,0,2.627472,20.625,0,18.75,0,87.0588235294118,101.176470588235,64.4,0,29.832,14.51934,179.6,75.2,109.375,0,103.125,100,76.4705882352941,
65,2019-02-03,14:46:48.43190,2.27581,,14.5383,0,-11.1328125,-11.1328125,-9.9609375,3.5,0,100,14.2545454545455,100,21,0,2976.5625,8.681640625,14.28621739,16.7887206,2.50250321,20.3841,6.09788261,0,2.627472,20.625,0,18.75,0,87.0588235294118,101.176470588235,64.4,0,29.832,14.51934,179.6,75.2,110.9375,0,98.4375,101.5625,76.4705882352941,
66,2019-02-03,14:46:48.47273,2.31654,,14.5383,0,-11.1328125,-11.1328125,-9.9609375,3.6,0,101.5625,14.1473684210526,101.5625,20,0,3023.4375,9.0703125,14.28621739,16.7887206,2.50250321,20.3841,6.09788261,0,2.627472,21.875,-1.875,19.53125,0.15625,87.0588235294118,101.176470588235,64.4,0,32.318,14.51934,181.4,73.4,110.9375,0,106.25,103.125,76.4705882352941,
67,2019-02-03,14:46:48.52057,2.3639,,14.5383,0,-11.1328125,-11.1328125,-9.9609375,3.7,0,103.125,14.1473684210526,103.125,20,0,3015.625,9.29817708333333,14.28621739,16.8852075,2.59899011,20.50125,6.21503261,0,2.705904,21.875,-1.875,19.53125,0.15625,87.0588235294118,101.176470588235,64.4,0,32.318,14.51934,181.4,73.4,110.9375,0,104.6875,103.125,76.4705882352941,
68,2019-02-03,14:46:48.55056,2.39402,,14.994,0,-11.1328125,-11.1328125,-9.9609375,3.8,0,103.125,14.1473684210526,103.125,20,0,3039.0625,9.62369791666667,14.28621739,16.8852075,2.59899011,20.50125,6.21503261,0,2.705904,21.875,-2.5,20.46875,0.15625,87.0588235294118,101.176470588235,64.4,0,32.318,14.51934,181.4,73.4,110.9375,0,117.1875,107.8125,76.4705882352941,
69,2019-02-03,14:46:48.59851,2.44212,,14.994,0,-11.1328125,-11.1328125,-9.9609375,3.9,0,106.25,14.0417910447761,107.8125,19,0,3007.8125,9.775390625,14.28621739,17.0781813,2.79196391,20.73555,6.44933261,0,2.64708,21.875,-2.5,20.46875,0.15625,87.0588235294118,101.176470588235,64.4,0,32.318,14.51934,181.4,73.4,112.5,0,107.8125,106.25,76.4705882352941,